Wind_Speed
24 20 15 16 18 20 17 21 28 28 23 25 23 13 8 6 5 8 14 16 11 17 13 19 24 25 27 30 31 36 40 40 33 30 29 30 32 35 39 41 41 43 36 36
26 17 18 22 18 22 23 23 23 27 24 25 21 14 11 10 5 6 14 17 17 19 16 20 22 26 30 33 36 40 44 40 32 31 32 32 33 37 39 40 40 32 34 37
23 21 25 24 23 22 23 25 28 32 31 27 30 19 18 16 11 15 11 19 21 20 20 22 22 26 31 34 37 41 40 30 31 30 32 34 37 37 37 35 30 32 35 39
22 26 27 25 24 24 24 25 27 30 31 28 24 21 21 20 17 17 13 6 11 16 20 21 24 28 33 34 35 38 30 30 32 33 33 35 37 35 32 31 32 34 37 41
17 23 26 28 22 26 22 29 28 27 28 32 27 26 24 23 16 19 20 16 13 15 18 21 23 28 30 31 35 35 30 32 33 34 35 37 35 33 34 33 35 36 40 44
24 26 28 26 31 30 27 32 31 30 30 35 31 31 26 24 25 26 23 21 19 15 18 17 19 25 29 31 33 34 33 37 36 36 36 35 33 35 35 36 38 39 44 47
25 27 26 24 26 27 27 30 33 33 31 33 35 35 38 32 32 35 33 37 34 24 23 20 21 27 30 34 35 37 37 40 37 35 33 31 32 35 36 38 39 43 47 50
31 31 26 23 22 27 30 33 33 32 30 30 30 36 43 41 40 40 37 33 31 29 26 26 26 31 35 40 38 38 38 38 40 42 38 35 35 39 40 41 43 47 51 54
30 29 28 30 26 28 32 32 27 28 28 27 28 33 34 32 30 29 25 24 19 18 20 23 29 35 34 37 39 40 40 45 47 46 41 38 40 43 42 44 45 48 53 55
31 35 30 29 33 34 33 31 30 29 32 30 29 28 29 25 23 25 18 24 21 15 22 29 33 34 34 38 42 39 45 45 47 46 44 42 43 39 40 42 45 50 53 52
33 39 32 37 39 34 34 34 34 32 35 33 30 30 27 27 27 26 24 20 18 20 25 27 30 33 29 34 37 34 34 43 49 48 44 44 42 40 41 44 48 51 50 51
36 37 34 37 36 37 36 39 39 37 35 34 32 28 25 27 31 29 27 26 27 26 23 25 29 29 30 33 36 28 36 43 50 51 47 45 39 40 44 47 49 48 50 51
37 39 36 36 39 41 41 41 41 38 36 36 35 29 23 27 29 31 32 32 32 32 29 30 31 31 34 36 28 35 41 45 52 50 44 38 38 42 46 46 47 48 48 48
37 37 39 36 36 36 41 38 41 40 40 36 34 27 21 25 32 28 26 27 30 32 34 34 33 30 33 34 36 32 40 48 49 39 35 37 41 44 46 47 46 47 45 48
42 40 41 40 37 34 37 40 40 41 39 38 30 31 21 22 28 31 29 29 33 36 38 38 33 29 35 33 34 38 46 53 41 35 36 40 43 46 46 44 44 44 45 47
48 47 46 43 42 39 38 38 43 44 44 44 38 31 23 24 28 30 30 33 35 31 33 36 29 32 38 37 39 45 45 41 36 36 39 43 45 46 44 41 42 43 43 42
51 54 54 45 47 48 42 39 42 42 46 47 42 32 29 29 29 30 30 30 30 27 30 29 31 35 40 41 41 39 48 39 35 38 41 43 46 44 41 41 42 43 42 41
53 58 61 55 56 55 38 39 42 47 48 48 43 39 37 34 31 33 33 30 30 25 30 32 36 37 39 41 45 44 43 35 36 39 42 45 46 42 40 41 44 45 43 43
49 56 63 67 66 53 44 42 44 44 50 54 45 38 39 37 35 31 20 21 28 32 32 33 36 39 40 43 45 37 33 33 37 40 42 45 44 41 39 44 45 46 44 43
57 55 60 66 72 63 41 46 45 49 45 39 42 43 44 42 39 34 34 35 30 36 39 39 39 39 37 40 37 34 32 33 37 41 43 45 43 40 42 45 45 45 41 40
56 59 60 62 69 63 50 50 49 54 35 33 33 42 49 46 41 37 37 33 34 39 42 43 41 43 38 37 37 32 31 34 38 43 44 45 43 40 44 44 43 41 41 41
57 58 57 58 67 62 51 55 56 47 50 45 38 35 44 50 47 43 41 40 43 45 46 48 56 39 38 39 36 31 32 36 40 44 45 44 42 42 42 43 41 40 41 45
59 57 56 57 58 53 60 58 54 52 49 48 44 40 37 45 44 43 45 43 45 45 44 46 33 30 31 36 31 31 33 37 42 44 45 41 39 41 42 41 39 41 44 43
55 55 52 53 48 49 54 59 57 54 54 51 42 43 34 37 41 41 42 42 46 44 48 48 29 38 30 33 29 31 33 39 42 44 41 38 39 41 40 38 38 42 41 41
49 45 47 35 37 49 53 56 58 55 51 48 45 40 37 36 41 46 45 46 51 37 19 28 22 24 25 27 28 31 35 39 41 40 38 37 38 38 36 37 41 40 38 39
40 41 43 41 40 47 52 58 57 51 47 46 44 40 34 40 50 49 48 50 50 34 18 20 17 21 24 27 28 33 36 38 39 37 36 35 36 35 35 39 40 37 38 39
Wind_Direction
242 238 235 230 226 222 214 196 176 181 205 221 213 207 245 230 296 302 291 296 306 324 349 341 345 347 348 342 341 333 335 331 323 323 329 326 322 314 310 308 306 306 306 306
242 235 226 231 228 223 218 217 195 196 216 224 211 207 230 231 240 265 281 290 300 314 318 324 332 335 331 332 331 327 327 325 322 325 323 318 313 308 306 302 303 304 304 308
238 224 227 228 227 227 225 223 205 203 221 236 225 216 221 222 237 259 263 252 269 290 306 317 321 326 323 322 321 322 325 323 319 319 314 312 311 307 304 300 302 306 309 312
237 226 229 231 230 228 231 229 229 224 229 235 243 232 233 243 246 249 247 266 264 276 289 301 314 318 317 311 317 328 321 319 317 316 312 312 308 306 298 299 305 306 309 311
234 228 229 229 229 235 228 234 237 227 232 232 231 243 239 248 260 259 252 269 262 264 278 290 300 305 304 306 313 319 319 318 313 311 311 308 306 305 302 304 308 309 309 311
226 227 231 227 226 230 223 236 242 242 233 231 230 239 245 252 263 262 264 273 273 277 285 289 287 293 298 302 311 311 314 318 312 312 311 306 308 307 305 302 303 309 310 313
234 239 237 235 238 240 234 235 242 246 242 244 235 238 251 245 262 271 275 278 275 268 273 282 284 285 287 292 302 304 302 313 313 311 307 308 310 313 312 306 306 308 309 313
230 232 232 234 233 242 238 238 241 248 244 241 244 240 243 248 253 264 268 269 265 259 265 280 275 275 288 299 301 300 305 311 315 318 313 310 310 312 313 314 310 309 312 316
231 229 234 232 228 234 239 242 241 245 246 237 235 241 246 246 250 253 262 267 263 257 268 272 271 281 298 302 302 300 304 311 313 318 313 311 315 314 310 314 311 312 314 318
228 228 222 230 232 230 233 236 241 242 246 248 242 244 256 251 249 240 262 250 249 265 257 263 271 296 303 301 302 301 305 308 320 318 316 314 316 317 317 312 312 313 316 318
235 237 219 222 230 234 239 241 242 244 245 250 249 252 253 255 249 250 254 257 264 268 278 294 300 295 300 308 302 312 316 323 324 320 313 313 312 313 311 312 314 316 318 319
250 243 226 237 225 226 230 237 241 243 248 254 257 249 252 257 256 260 266 270 275 284 289 290 289 292 308 306 303 313 313 322 320 317 313 310 311 311 312 315 317 319 320 319
252 252 248 234 237 233 228 232 241 249 254 254 259 256 256 255 258 261 263 268 273 279 283 288 297 295 298 302 295 315 321 321 316 312 310 312 314 313 316 319 319 320 320 321
248 252 254 248 238 236 235 231 240 250 253 256 255 270 254 266 261 258 266 277 282 286 291 298 302 298 291 296 304 306 319 318 314 309 313 316 316 318 321 320 321 321 323 326
250 249 250 251 248 238 237 233 231 244 255 258 258 265 252 272 261 265 269 271 277 280 285 291 304 294 293 306 312 308 319 315 310 313 317 317 319 322 321 321 322 323 326 328
245 250 252 251 250 246 234 239 234 230 243 253 259 256 261 263 268 262 264 271 273 282 284 291 292 296 306 305 310 318 315 310 311 314 317 320 322 322 321 322 322 324 324 330
240 243 248 252 249 252 245 243 246 244 235 249 256 261 257 258 267 270 267 271 272 277 280 286 293 300 304 314 312 304 317 311 312 315 319 320 322 321 320 322 323 322 320 322
242 242 242 250 249 249 251 249 240 243 229 242 253 259 261 261 264 267 263 259 267 279 285 291 295 302 301 309 309 308 309 308 313 317 318 319 322 320 319 323 323 319 318 319
244 241 241 242 249 250 248 251 249 245 234 233 248 254 258 261 263 262 268 277 273 276 281 291 293 297 303 307 309 308 306 309 315 316 317 322 322 318 319 322 320 318 316 315
244 243 238 237 244 251 247 247 251 250 244 243 244 251 254 257 258 258 266 278 272 267 274 286 294 295 302 312 310 304 304 309 311 316 319 324 321 317 319 320 320 318 316 315
249 244 238 236 238 247 246 248 245 243 250 251 254 253 253 253 255 256 266 266 267 268 278 286 286 290 288 306 305 298 301 306 312 319 322 324 320 317 320 320 320 320 317 318
246 245 242 238 236 241 247 248 247 249 249 254 258 260 252 253 254 255 259 264 271 276 283 290 297 278 281 291 298 296 301 307 314 320 322 321 318 317 319 320 319 318 319 320
245 245 243 238 238 239 242 246 248 251 250 247 253 259 263 250 250 251 254 260 269 271 279 275 289 274 281 290 290 295 301 309 317 319 321 320 318 319 319 319 319 321 323 327
247 244 242 240 237 237 237 240 244 246 250 251 253 259 252 248 249 252 256 259 261 266 269 281 273 277 278 284 290 295 305 311 315 319 320 318 319 319 319 320 320 321 326 329
245 242 241 241 237 235 232 236 238 241 245 248 247 246 248 248 249 251 252 261 272 264 284 294 280 288 287 286 292 301 306 311 315 317 317 319 319 318 320 320 322 327 329 333
246 235 238 238 235 233 228 229 233 236 241 245 244 252 252 260 250 250 248 257 266 294 283 281 282 284 284 289 298 302 307 311 314 316 317 319 319 319 319 321 328 331 333 334
Height
5872 5875 5879 5879 5879 5881 5884 5884 5886 5888 5888 5889 5891 5893 5893 5890 5892 5894 5895 5896 5898 5897 5896 5896 5896 5895 5894 5893 5891 5890 5887 5885 5883 5880 5875 5870 5868 5867 5864 5859 5854 5849 5843 5840
5869 5874 5874 5874 5875 5877 5880 5882 5886 5888 5887 5887 5888 5889 5890 5889 5891 5893 5894 5895 5895 5894 5892 5893 5893 5893 5893 5891 5888 5885 5882 5879 5877 5874 5870 5869 5866 5864 5859 5853 5848 5843 5838 5833
5864 5869 5867 5869 5871 5874 5877 5880 5882 5883 5881 5882 5884 5884 5886 5887 5889 5890 5891 5893 5893 5892 5889 5891 5891 5891 5891 5889 5887 5884 5877 5875 5874 5871 5869 5865 5862 5858 5851 5847 5842 5837 5831 5825
5860 5861 5863 5866 5869 5870 5873 5876 5877 5878 5879 5879 5879 5880 5881 5883 5883 5886 5887 5889 5889 5888 5887 5888 5888 5888 5888 5886 5883 5878 5876 5873 5870 5867 5865 5860 5857 5851 5846 5842 5836 5830 5825 5819
5859 5857 5859 5861 5867 5866 5873 5868 5870 5873 5875 5875 5876 5876 5877 5878 5880 5882 5883 5884 5884 5885 5884 5884 5885 5885 5885 5883 5880 5877 5875 5871 5868 5863 5859 5854 5849 5843 5839 5832 5827 5821 5816 5812
5851 5851 5853 5858 5857 5858 5864 5862 5864 5866 5868 5869 5872 5872 5872 5874 5875 5875 5878 5879 5880 5881 5881 5881 5881 5880 5879 5879 5877 5875 5871 5867 5862 5858 5852 5846 5839 5834 5829 5824 5819 5813 5809 5803
5846 5847 5849 5853 5855 5857 5858 5859 5859 5861 5864 5864 5867 5868 5866 5871 5870 5869 5871 5873 5876 5877 5876 5877 5876 5876 5874 5874 5872 5869 5866 5862 5856 5851 5845 5838 5832 5827 5820 5815 5810 5806 5802 5794
5838 5841 5845 5848 5850 5852 5851 5853 5854 5855 5858 5861 5860 5859 5860 5864 5867 5867 5866 5868 5869 5872 5873 5873 5873 5871 5870 5868 5865 5862 5859 5854 5848 5842 5835 5829 5824 5818 5813 5806 5802 5797 5790 5783
5830 5836 5838 5840 5843 5845 5846 5847 5851 5849 5850 5852 5853 5854 5857 5861 5862 5863 5863 5864 5865 5866 5867 5868 5866 5866 5865 5862 5859 5856 5852 5847 5839 5833 5827 5821 5815 5810 5805 5799 5795 5788 5782 5774
5823 5825 5830 5833 5834 5835 5838 5843 5844 5845 5845 5845 5848 5849 5851 5856 5858 5859 5859 5860 5861 5861 5862 5861 5861 5861 5858 5856 5852 5848 5845 5840 5831 5825 5818 5814 5809 5804 5797 5793 5787 5781 5774 5766
5816 5817 5824 5823 5824 5830 5833 5834 5836 5838 5838 5838 5842 5844 5846 5848 5850 5852 5854 5855 5856 5858 5858 5857 5856 5854 5851 5847 5844 5841 5837 5831 5825 5819 5814 5810 5805 5798 5792 5787 5780 5773 5765 5757
5810 5811 5817 5818 5820 5821 5825 5826 5828 5829 5833 5834 5835 5840 5841 5843 5844 5845 5847 5849 5852 5853 5852 5850 5849 5847 5844 5841 5838 5835 5831 5826 5820 5815 5809 5804 5798 5792 5786 5779 5772 5764 5757 5748
5803 5805 5809 5814 5815 5814 5814 5819 5822 5825 5827 5827 5829 5834 5837 5837 5839 5840 5843 5845 5847 5847 5846 5846 5846 5843 5840 5837 5833 5830 5825 5821 5815 5809 5803 5797 5791 5786 5779 5771 5764 5756 5748 5740
5795 5798 5800 5807 5810 5809 5809 5814 5818 5821 5819 5822 5823 5829 5831 5831 5831 5835 5837 5839 5840 5839 5839 5839 5839 5838 5835 5832 5829 5825 5820 5815 5808 5802 5796 5791 5785 5778 5771 5764 5756 5749 5740 5732
5785 5788 5791 5795 5801 5804 5804 5805 5809 5812 5814 5814 5820 5820 5825 5825 5826 5828 5831 5833 5833 5834 5834 5833 5833 5831 5828 5825 5821 5817 5811 5807 5802 5796 5790 5784 5777 5770 5763 5757 5749 5741 5734 5724
5776 5777 5780 5784 5789 5793 5797 5800 5800 5803 5806 5807 5810 5815 5820 5820 5820 5822 5824 5826 5827 5827 5828 5827 5825 5822 5820 5817 5813 5809 5805 5800 5795 5789 5783 5776 5770 5764 5757 5750 5743 5735 5728 5719
5769 5769 5770 5773 5780 5780 5787 5795 5797 5798 5800 5803 5803 5811 5812 5814 5815 5817 5818 5821 5821 5823 5821 5819 5817 5815 5812 5809 5807 5803 5799 5793 5788 5782 5776 5770 5765 5758 5751 5744 5737 5730 5723 5714
5761 5761 5762 5763 5765 5769 5780 5785 5789 5790 5793 5797 5799 5802 5805 5808 5809 5811 5812 5814 5816 5816 5814 5812 5810 5808 5806 5803 5800 5795 5791 5787 5782 5776 5771 5766 5758 5752 5745 5739 5731 5724 5716 5710
5748 5748 5750 5751 5751 5760 5767 5775 5779 5783 5784 5789 5792 5796 5798 5800 5802 5805 5808 5809 5809 5808 5806 5805 5803 5802 5799 5796 5793 5788 5785 5781 5776 5771 5766 5759 5752 5746 5739 5732 5725 5717 5710 5703
5731 5734 5734 5742 5741 5745 5761 5766 5772 5770 5774 5784 5786 5789 5791 5793 5794 5800 5802 5802 5802 5801 5799 5798 5797 5796 5794 5791 5786 5783 5780 5775 5771 5766 5759 5753 5745 5739 5732 5725 5718 5710 5703 5697
5715 5717 5717 5725 5726 5734 5746 5752 5760 5761 5772 5775 5781 5783 5783 5784 5789 5793 5793 5794 5794 5793 5792 5792 5791 5789 5788 5785 5781 5778 5775 5771 5765 5759 5753 5746 5739 5733 5727 5719 5712 5704 5696 5689
5699 5699 5707 5712 5713 5723 5739 5739 5746 5756 5759 5764 5769 5772 5773 5776 5780 5784 5785 5785 5786 5785 5784 5784 5780 5781 5781 5779 5775 5773 5769 5764 5758 5752 5746 5739 5733 5727 5720 5713 5705 5697 5690 5682
5685 5685 5691 5694 5702 5719 5721 5728 5736 5741 5747 5753 5759 5761 5763 5767 5770 5773 5775 5777 5776 5776 5777 5777 5774 5773 5773 5772 5768 5767 5762 5757 5751 5746 5739 5732 5726 5720 5714 5706 5698 5690 5683 5675
5669 5671 5673 5679 5695 5704 5709 5714 5721 5729 5735 5741 5748 5751 5754 5757 5761 5763 5764 5766 5765 5768 5768 5767 5768 5768 5766 5764 5761 5759 5754 5750 5745 5739 5733 5726 5720 5714 5707 5699 5692 5684 5677 5669
5655 5657 5664 5667 5680 5688 5695 5701 5709 5717 5724 5731 5736 5741 5745 5749 5751 5752 5756 5756 5756 5757 5757 5760 5760 5759 5758 5757 5755 5751 5747 5743 5738 5733 5726 5721 5714 5707 5700 5693 5686 5678 5671 5664
5643 5648 5649 5659 5667 5671 5683 5688 5695 5704 5714 5721 5727 5734 5737 5739 5739 5742 5746 5747 5748 5749 5752 5754 5751 5753 5752 5752 5748 5745 5741 5737 5732 5726 5720 5714 5708 5702 5694 5687 5681 5673 5666 5659